CW4171 Ibiza ES current weather conditions

sailwx.info

Wind from 091

Air temperature 23.3° C
Dewpoint 21.2° C

Last reported at 2019-Sep-19 07:59 UTC.
Time now 2019-Sep-19 08:27 UTC

Location: N 38°59' E 001°18'.
View on Google Maps.

See reports from other nearby stations

  
Tides and Currents Weather Stations Pressure Air Temp Water Temp Dewpoint Dewpoint Depression Visibility Wind Speed Wind Dir Waves Ship Positions
date/time (UTC)wind fromknots sea level pressurealtimeterstation pressurevisibilityair tempwater tempwave heightnotes
2019-Sep-19 07:59 091 23.3
2019-Sep-19 07:49 090 23.3
2019-Sep-19 07:39 090 22.8
2019-Sep-19 07:29 090 22.2
2019-Sep-19 07:19 090 21.7
2019-Sep-19 07:09 092 21.1
2019-Sep-19 06:59 092 20.6
2019-Sep-19 06:49 095 19.4
2019-Sep-19 06:39 098 19.4
2019-Sep-19 06:29 096 19.4
2019-Sep-19 06:19 096 19.4
2019-Sep-19 06:09 095 19.4
2019-Sep-19 05:59 096 19.4
2019-Sep-19 05:49 097 19.4
2019-Sep-19 05:39 095 19.4
2019-Sep-19 05:29 095 19.4
2019-Sep-19 05:19 096 19.4
2019-Sep-19 05:09 098 19.4
2019-Sep-19 04:59 098 19.4
2019-Sep-19 04:49 098 19.4
2019-Sep-19 04:39 098 19.4
2019-Sep-19 04:29 098 19.4
2019-Sep-19 04:19 098 19.4
2019-Sep-19 04:09 098 19.4
2019-Sep-19 03:59 096 19.4
2019-Sep-19 03:49 098 0 19.4
2019-Sep-19 03:39 088 19.4
2019-Sep-19 03:29 088 19.4
2019-Sep-19 03:19 088 19.4
2019-Sep-19 03:09 088 19.4
2019-Sep-19 02:59 088 19.4
2019-Sep-19 02:49 088 19.4
2019-Sep-19 02:39 088 19.4
2019-Sep-19 02:29 088 19.4
2019-Sep-19 02:19 088 0 19.4
2019-Sep-19 02:09 102 0 19.4
2019-Sep-19 01:59 099 20.0
2019-Sep-19 01:49 100 20.0
2019-Sep-19 01:39 100 20.0
2019-Sep-19 01:29 099 0 20.0
2019-Sep-19 01:19 101 0 20.0
2019-Sep-19 01:09 087 20.0
2019-Sep-19 00:59 094 20.0
2019-Sep-19 00:49 101 0 20.0
2019-Sep-19 00:39 105 0 20.6
2019-Sep-19 00:29 084 20.6
2019-Sep-19 00:19 084 0 20.6
2019-Sep-19 00:09 086 1 20.6
2019-Sep-18 23:59 090 0 20.6
2019-Sep-18 23:49 095 0 21.1
2019-Sep-18 23:39 092 21.1
2019-Sep-18 23:29 093 21.1
2019-Sep-18 23:19 092 21.1
2019-Sep-18 23:09 091 1 21.1
2019-Sep-18 22:59 078 21.1
2019-Sep-18 22:49 076 0 21.1
2019-Sep-18 22:39 095 0 21.1
2019-Sep-18 22:29 098 21.1
2019-Sep-18 22:19 057 21.7
2019-Sep-18 22:09 057 0 21.1
2019-Sep-18 21:59 101 0 21.1
2019-Sep-18 21:49 078 1 21.7
2019-Sep-18 21:39 094 0 21.7
2019-Sep-18 21:29 074 0 21.7
2019-Sep-18 21:19 107 0 21.7
2019-Sep-18 21:09 114 0 22.2
2019-Sep-18 20:59 067 22.2
2019-Sep-18 20:49 063 22.8
2019-Sep-18 20:39 083 22.8
2019-Sep-18 20:29 088 22.8
2019-Sep-18 20:19 084 23.3
2019-Sep-18 20:09 084 23.3
2019-Sep-18 19:59 083 23.3
2019-Sep-18 19:49 083 23.3
2019-Sep-18 19:39 088 23.9
2019-Sep-18 19:29 097 23.9
2019-Sep-18 19:19 178 24.4
2019-Sep-18 19:09 179 24.4
2019-Sep-18 18:59 202 24.4
2019-Sep-18 18:49 236 25.0
2019-Sep-18 18:39 241 25.0
2019-Sep-18 18:29 241 25.0
2019-Sep-18 18:19 241 25.6
2019-Sep-18 18:09 206 25.6
2019-Sep-18 17:59 211 0 25.6
2019-Sep-18 17:49 187 26.1
2019-Sep-18 17:39 189 26.1
2019-Sep-18 17:29 210 26.1
2019-Sep-18 17:19 216 26.7
2019-Sep-18 17:09 213 0 27.2
2019-Sep-18 16:59 209 27.2
2019-Sep-18 16:49 213 26.7
2019-Sep-18 16:39 242 26.7
2019-Sep-18 16:29 239 0 26.7
2019-Sep-18 16:19 259 0 26.7
2019-Sep-18 16:09 249 0 26.7
2019-Sep-18 15:59 249 25.6
2019-Sep-18 15:49 254 0 25.6
2019-Sep-18 15:39 256 0 26.1
2019-Sep-18 15:29 253 26.1
2019-Sep-18 15:19 232 26.7
2019-Sep-18 15:09 257 27.2
2019-Sep-18 14:59 296 26.7
2019-Sep-18 14:49 304 26.1
2019-Sep-18 14:39 272 26.7
2019-Sep-18 14:29 298 26.1
2019-Sep-18 14:19 285 25.6
2019-Sep-18 14:09 272 26.1
2019-Sep-18 13:59 276 26.1
2019-Sep-18 13:49 268 26.1
2019-Sep-18 13:39 236 25.6
2019-Sep-18 13:29 259 25.6
2019-Sep-18 13:19 285 2 25.6
2019-Sep-18 13:09 283 3 25.0
2019-Sep-18 12:59 252 2 25.6
2019-Sep-18 12:49 240 2 25.6
2019-Sep-18 12:39 254 2 25.6
2019-Sep-18 12:29 259 3 25.0
2019-Sep-18 12:19 250 2 25.6
2019-Sep-18 12:09 299 2 25.6
2019-Sep-18 11:59 316 2 25.6
2019-Sep-18 11:49 271 3 25.6
2019-Sep-18 11:39 290 2 25.6
2019-Sep-18 11:29 272 2 25.6
2019-Sep-18 11:19 269 1 25.6
2019-Sep-18 11:10 296 1 25.6
2019-Sep-18 10:59 267 2 25.0
2019-Sep-18 10:49 258 2 25.6
2019-Sep-18 10:39 298 1 25.6
2019-Sep-18 10:29 279 2 25.0
2019-Sep-18 10:19 277 2 25.0
2019-Sep-18 10:09 251 2 25.0
2019-Sep-18 09:59 265 1 25.0
2019-Sep-18 09:49 269 2 24.4
2019-Sep-18 09:39 253 1 24.4
2019-Sep-18 09:29 262 2 24.4
2019-Sep-18 09:19 255 1 24.4
2019-Sep-18 09:09 259 1 24.4
2019-Sep-18 08:59 262 1 24.4
2019-Sep-18 08:49 263 0 24.4
2019-Sep-18 08:39 103 0 25.0
2019-Sep-18 08:29 080 25.6
2019-Sep-18 08:19 080 25.6
2019-Sep-18 08:09 080 25.0
2019-Sep-18 07:59 080 23.3
2019-Sep-18 07:49 080 22.8
2019-Sep-18 07:39 079 22.2
2019-Sep-18 07:29 081 21.1
2019-Sep-18 07:19 080 21.1
2019-Sep-18 07:09 080 20.6
2019-Sep-18 06:59 080 20.0
2019-Sep-18 06:49 080 19.4
2019-Sep-18 06:39 079 19.4
2019-Sep-18 06:29 079 20.0
2019-Sep-18 06:19 079 19.4
2019-Sep-18 06:09 079 18.9
2019-Sep-18 05:59 078 0 18.3
2019-Sep-18 05:49 090 18.9
2019-Sep-18 05:39 078 19.4
2019-Sep-18 05:29 078 18.9
2019-Sep-18 05:19 078 18.9
2019-Sep-18 05:09 078 18.9
2019-Sep-18 04:59 078 18.9
2019-Sep-18 04:49 078 18.9
2019-Sep-18 04:39 078 18.9
2019-Sep-18 04:29 087 18.9
2019-Sep-18 04:19 086 19.4
2019-Sep-18 04:09 082 20.0
2019-Sep-18 03:59 083 20.0
2019-Sep-18 03:49 083 19.4
2019-Sep-18 03:39 083 19.4
2019-Sep-18 03:29 084 19.4
2019-Sep-18 03:19 082 20.0
2019-Sep-18 03:09 082 20.6
2019-Sep-18 02:59 082 20.0
2019-Sep-18 02:49 082 20.0
2019-Sep-18 02:39 082 20.0
2019-Sep-18 02:29 095 20.6
2019-Sep-18 02:19 085 20.6
2019-Sep-18 02:09 085 21.1
2019-Sep-18 01:59 085 20.6
2019-Sep-18 01:49 085 20.6
2019-Sep-18 01:39 083 20.6
2019-Sep-18 01:29 084 0 20.6
2019-Sep-18 01:19 079 0 20.6
2019-Sep-18 01:09 092 0 20.6
2019-Sep-18 00:59 094 20.6
2019-Sep-18 00:49 097 20.6
2019-Sep-18 00:39 103 0 21.1
2019-Sep-18 00:29 089 21.1
2019-Sep-18 00:19 090 21.1
2019-Sep-18 00:09 090 21.1
2019-Sep-17 23:59 095 21.1
2019-Sep-17 23:49 101 0 21.1
2019-Sep-17 23:39 102 0 21.7
2019-Sep-17 23:29 044 21.7
2019-Sep-17 23:19 044 22.2
2019-Sep-17 23:09 043 22.2
2019-Sep-17 22:59 042 22.2
2019-Sep-17 22:49 042 22.2
2019-Sep-17 22:39 042 22.8
2019-Sep-17 22:29 297 23.3
2019-Sep-17 22:19 297 23.3
2019-Sep-17 22:09 296 0 23.3
2019-Sep-17 21:59 288 23.3
2019-Sep-17 21:49 057 23.3
2019-Sep-17 21:39 056 23.3
2019-Sep-17 21:29 057 23.3
2019-Sep-17 21:19 057 23.3
2019-Sep-17 21:09 057 23.3
2019-Sep-17 20:59 057 23.3
2019-Sep-17 20:49 058 0 23.9
2019-Sep-17 20:39 119 0 23.9
2019-Sep-17 20:29 140 0 23.9
2019-Sep-17 20:19 134 1 23.9
2019-Sep-17 20:09 099 23.9
2019-Sep-17 19:59 123 0 23.9
2019-Sep-17 19:49 087 0 23.9
2019-Sep-17 19:39 115 1 23.9
2019-Sep-17 19:29 114 0 23.9
2019-Sep-17 19:19 046 0 23.9
2019-Sep-17 19:09 130 24.4
2019-Sep-17 18:59 161 24.4
2019-Sep-17 18:49 173 0 24.4
2019-Sep-17 18:39 143 0 24.4
2019-Sep-17 18:29 074 24.4
2019-Sep-17 18:19 342 0 24.4
2019-Sep-17 18:09 331 0 24.4
2019-Sep-17 17:59 329 1 24.4
2019-Sep-17 17:49 333 0 24.4
2019-Sep-17 17:39 299 25.0
2019-Sep-17 17:29 275 25.0
2019-Sep-17 17:19 273 25.0
2019-Sep-17 17:09 268 0 25.0
2019-Sep-17 16:59 261 0 25.0
2019-Sep-17 16:49 277 25.0
2019-Sep-17 16:39 245 1 25.6
2019-Sep-17 16:29 253 1 25.6
2019-Sep-17 16:19 262 0 25.6
2019-Sep-17 16:09 188 1 26.1
2019-Sep-17 15:59 166 0 26.1
2019-Sep-17 15:49 132 0 26.1
2019-Sep-17 15:39 107 0 26.1
2019-Sep-17 15:29 360 1 26.1
2019-Sep-17 15:19 299 1 26.1
2019-Sep-17 15:09 273 1 26.1
2019-Sep-17 14:59 272 2 26.1
2019-Sep-17 14:49 337 2 26.1
2019-Sep-17 14:39 296 2 25.6
2019-Sep-17 14:29 313 3 25.6
2019-Sep-17 14:19 290 3 25.0
2019-Sep-17 14:09 325 3 25.6
2019-Sep-17 13:59 312 3 25.6
2019-Sep-17 13:49 329 3 25.6
2019-Sep-17 13:39 324 3 25.6
2019-Sep-17 13:29 321 3 25.6
2019-Sep-17 13:19 323 3 26.1
2019-Sep-17 13:09 302 2 26.1
2019-Sep-17 12:59 305 2 25.6
2019-Sep-17 12:49 315 2 25.0
2019-Sep-17 12:39 300 2 25.0
2019-Sep-17 12:29 309 3 25.0
2019-Sep-17 12:19 349 3 25.0
2019-Sep-17 12:09 311 3 25.0
2019-Sep-17 11:59 324 4 25.0
2019-Sep-17 11:49 318 4 25.6
2019-Sep-17 11:39 329 3 25.6
2019-Sep-17 11:29 317 3 25.6
2019-Sep-17 11:19 325 3 25.6
2019-Sep-17 11:09 309 3 25.6
2019-Sep-17 10:59 337 2 26.1
2019-Sep-17 10:49 329 2 26.1
2019-Sep-17 10:39 188 0 26.1
2019-Sep-17 10:29 344 2 25.6
2019-Sep-17 10:19 329 2 25.6
2019-Sep-17 10:09 327 2 25.6
2019-Sep-17 09:59 316 1 25.6
2019-Sep-17 09:49 282 2 25.0
2019-Sep-17 09:39 262 1 25.0
2019-Sep-17 09:29 055 1 25.0
2019-Sep-17 09:19 338 2 25.0
2019-Sep-17 09:09 257 1 25.0
2019-Sep-17 08:59 330 2 24.4
2019-Sep-17 08:49 337 2 24.4
2019-Sep-17 08:39 327 2 24.4
2019-Sep-17 08:29 269 2 24.4
2019-Sep-17 08:19 325 1 24.4
2019-Sep-17 08:09 318 2 24.4